FW1970 Weather Reports


Display with metric or nautical units.
time (UTC)temp
F
wind
direction
speed
MPH
gust
MPH
rain 1hr
in
rain 24hr
in
rain mn
in
humidity
%
barometer
mb
20260508014508 50 282 2.0 7.0 0.00 0.00 0.00 38 1012.5
20260508013006 50 329 2.0 4.0 0.00 0.00 0.00 37 1012.4
20260508011505 51 312 2.0 8.0 0.00 0.00 0.00 35 1012.1
20260508010004 51 321 2.0 11.0 0.00 0.00 0.00 34 1011.8
20260508004504 52 323 5.0 10.0 0.00 0.00 0.00 33 1011.5
20260508003002 53 304 5.0 15.0 0.00 0.00 0.00 32 1011.2
20260508001502 54 298 7.0 15.0 0.00 0.00 0.00 32 1011.0
20260508000002 54 314 7.0 15.0 0.00 0.00 0.00 31 1010.7
20260507234501 55 286 7.0 14.0 0.00 0.00 0.00 30 1010.6
20260507233100 56 325 6.0 17.0 0.00 0.00 0.00 30 1010.5
20260507231601 56 327 8.0 19.0 0.00 0.00 0.00 29 1010.3
20260507230105 57 279 7.0 12.0 0.00 0.00 0.00 27 1010.2
20260507224608 58 316 8.0 16.0 0.00 0.00 0.00 26 1009.9
20260507223057 58 267 6.0 13.0 0.00 0.00 0.00 28 1010.0
20260507221559 57 300 7.0 15.0 0.00 0.00 0.00 27 1009.8
20260507220056 57 236 6.0 13.0 0.00 0.00 0.00 27 1009.7
20260507214605 58 289 7.0 19.0 0.00 0.00 0.00 26 1009.4
20260507213057 58 300 8.0 19.0 0.00 0.00 0.00 24 1009.2
20260507211556 58 355 4.0 12.0 0.00 0.00 0.00 26 1009.5
20260507210100 58 277 10.0 15.0 0.00 0.00 0.00 26 1009.2
20260507204553 58 269 4.0 16.0 0.00 0.00 0.00 26 1009.2
20260507203106 58 307 9.0 16.0 0.00 0.00 0.00 25 1009.1
20260507201559 58 281 6.0 16.0 0.00 0.00 0.00 26 1009.1
20260507200104 58 290 7.0 17.0 0.00 0.00 0.00 26 1009.3
20260507194549 57 268 3.0 17.0 0.00 0.00 0.00 27 1009.5
20260507193049 58 227 4.0 18.0 0.00 0.00 0.00 26 1009.6
20260507191547 58 314 7.0 19.0 0.00 0.00 0.00 26 1009.8
20260507190048 58 263 6.0 16.0 0.00 0.00 0.00 27 1009.7
20260507184551 57 274 5.0 16.0 0.00 0.00 0.00 29 1009.7
20260507183047 58 231 11.0 21.0 0.00 0.00 0.00 27 1009.8
20260507181539 58 176 11.0 17.0 0.00 0.00 0.00 28 1010.0
20260507180040 57 291 9.0 15.0 0.00 0.00 0.00 30 1010.3
20260507174538 58 267 4.0 10.0 0.00 0.00 0.00 31 1010.3
20260507173036 57 282 6.0 12.0 0.00 0.00 0.00 32 1010.6
20260507171633 57 246 5.0 12.0 0.00 0.00 0.00 32 1010.6
20260507170036 57 212 3.0 10.0 0.00 0.00 0.00 34 1010.8
20260507164531 56 315 7.0 16.0 0.00 0.00 0.00 32 1010.8
20260507163025 56 267 5.0 9.0 0.00 0.00 0.00 34 1011.2
20260507161524 55 217 12.0 19.0 0.00 0.00 0.00 33 1011.3
20260507160022 56 226 8.0 15.0 0.00 0.00 0.00 31 1011.4
20260507154520 56 296 7.0 14.0 0.00 0.00 0.00 31 1011.5
20260507153017 56 267 3.0 11.0 0.00 0.00 0.00 33 1011.6
20260507151514 53 232 6.0 13.0 0.00 0.00 0.00 34 1012.0
20260507150020 54 319 8.0 14.0 0.00 0.00 0.00 34 1012.0
20260507144519 53 261 5.0 13.0 0.00 0.00 0.00 38 1012.4
20260507143002 53 273 3.0 15.0 0.00 0.00 0.00 40 1012.4
20260507141602 53 287 6.0 13.0 0.00 0.00 0.00 42 1012.7
20260507140056 51 267 7.0 12.0 0.00 0.00 0.00 43 1013.0
20260507134550 52 218 4.0 9.0 0.00 0.01 0.00 49 1013.0
20260507133100 50 232 2.0 7.0 0.00 0.01 0.00 53 1013.1
20260507131550 50 221 2.0 5.0 0.00 0.01 0.00 55 1013.2
20260507130051 48 241 2.0 6.0 0.00 0.01 0.00 57 1013.2
20260507124533 48 242 1.0 4.0 0.00 0.02 0.00 59 1013.3
20260507123029 47 256 1.0 3.0 0.00 0.02 0.00 62 1013.1
20260507121525 45 268 2.0 4.0 0.00 0.02 0.00 63 1013.3
20260507120024 44 269 2.0 6.0 0.00 0.02 0.00 66 1013.1
20260507114517 43 310 1.0 3.0 0.00 0.07 0.00 67 1013.3
20260507113015 43 346 0.0 1.0 0.00 0.07 0.00 68 1013.1
20260507111509 41 346 0.0 1.0 0.00 0.07 0.00 69 1012.8
20260507110005 41 346 0.0 0.0 0.00 0.16 0.00 68 1012.8
20260507104601 40 346 0.0 0.0 0.00 0.16 0.00 68 1012.7
20260507103058 40 346 0.0 0.0 0.00 0.16 0.00 68 1012.4
20260507101603 40 346 0.0 1.0 0.00 0.16 0.00 67 1012.4
20260507100057 41 346 0.0 0.0 0.00 0.16 0.00 68 1012.5
20260507094552 41 346 0.0 0.0 0.00 0.28 0.00 67 1012.4
20260507093051 41 346 0.0 1.0 0.00 0.28 0.00 66 1012.4
20260507091550 41 346 0.0 0.0 0.00 0.28 0.00 64 1012.5
20260507090049 41 346 0.0 1.0 0.00 0.28 0.00 63 1012.4
20260507084556 42 346 0.0 0.0 0.00 0.39 0.00 62 1012.5
20260507083047 42 346 0.0 0.0 0.00 0.39 0.00 62 1012.4
20260507081546 42 346 0.0 0.0 0.00 0.39 0.00 62 1012.4
20260507080048 43 346 0.0 0.0 0.00 0.39 0.00 61 1012.4
20260507074542 43 346 0.0 0.0 0.00 0.39 0.00 60 1012.4
20260507073040 44 346 0.0 0.0 0.00 0.39 0.00 60 1012.4
20260507071539 44 346 0.0 1.0 0.00 0.39 0.00 61 1012.6
20260507070039 43 346 0.0 1.0 0.00 0.39 0.00 62 1012.6
20260507064538 43 346 0.0 1.0 0.00 0.43 0.00 63 1012.5
20260507063037 43 346 0.0 0.0 0.00 0.43 0.00 61 1012.7
20260507061535 44 346 0.0 0.0 0.00 0.43 0.00 61 1012.6
20260507060031 45 346 0.0 2.0 0.00 0.43 0.00 60 1012.6
20260507054536 45 346 0.0 3.0 0.00 0.47 0.00 59 1012.7
20260507053026 46 346 1.0 4.0 0.00 0.47 0.00 58 1012.8
20260507051529 46 347 1.0 4.0 0.00 0.47 0.00 57 1013.2
20260507050027 46 350 1.0 5.0 0.00 0.47 0.00 56 1013.2
20260507044521 46 346 1.0 2.0 0.00 0.48 0.00 55 1013.2
20260507043023 47 346 1.0 3.0 0.00 0.48 0.00 54 1013.1
20260507041518 47 11 1.0 4.0 0.00 0.48 0.00 55 1013.2
20260507040014 47 11 1.0 3.0 0.00 0.48 0.00 55 1013.0
20260507034513 47 13 1.0 3.0 0.00 0.48 0.48 55 1012.8
20260507033011 47 17 1.0 4.0 0.00 0.48 0.48 55 1012.9
20260507031511 47 360 0.0 4.0 0.00 0.48 0.48 55 1012.8
20260507030009 48 5 0.0 0.0 0.00 0.48 0.48 54 1012.4
20260507024511 48 5 0.0 3.0 0.00 0.48 0.48 54 1012.4
20260507023110 48 5 0.0 3.0 0.00 0.48 0.48 53 1012.5
20260507021505 48 348 1.0 2.0 0.00 0.48 0.48 53 1012.3
20260507020005 49 348 0.0 3.0 0.00 0.48 0.48 53 1011.9